| time (UTC) | temp F | wind direction | speed MPH | gust MPH | rain 1hr in | rain 24hr in | rain mn in | humidity % | barometer mb |
| 20260507093313 | 53 | 21 | 0.0 | 0.0 | 0.00 | 0.00 | 0.00 | 94 | 1016.5 |
| 20260507092810 | 53 | 16 | 0.0 | 1.0 | 0.00 | 0.00 | 0.00 | 94 | 1016.6 |
| 20260507092307 | 53 | 75 | 0.0 | 0.0 | 0.00 | 0.00 | 0.00 | 94 | 1016.6 |
| 20260507091803 | 53 | 17 | 0.0 | 0.0 | 0.00 | 0.00 | 0.00 | 94 | 1016.4 |
| 20260507091300 | 53 | 22 | 0.0 | 0.0 | 0.00 | 0.00 | 0.00 | 94 | 1016.3 |
| 20260507090759 | 53 | 350 | 0.0 | 1.0 | 0.00 | 0.00 | 0.00 | 94 | 1016.8 |
| 20260507090257 | 53 | 7 | 0.0 | 0.0 | 0.00 | 0.00 | 0.00 | 93 | 1016.8 |
| 20260507085754 | 54 | 10 | 0.0 | 0.0 | 0.00 | 0.00 | 0.00 | 93 | 1016.9 |
| 20260507085250 | 54 | 23 | 0.0 | 0.0 | 0.00 | 0.00 | 0.00 | 93 | 1016.7 |
| 20260507084748 | 54 | 11 | 0.0 | 0.0 | 0.00 | 0.00 | 0.00 | 93 | 1016.8 |
| 20260507084244 | 54 | 21 | 0.0 | 0.0 | 0.00 | 0.00 | 0.00 | 93 | 1016.6 |
| 20260507083742 | 54 | 359 | 0.0 | 0.0 | 0.00 | 0.00 | 0.00 | 93 | 1016.4 |
| 20260507083238 | 54 | 5 | 0.0 | 0.0 | 0.00 | 0.00 | 0.00 | 92 | 1016.2 |
| 20260507082734 | 54 | 36 | 1.0 | 3.0 | 0.00 | 0.00 | 0.00 | 92 | 1016.3 |
| 20260507082230 | 55 | 23 | 1.0 | 4.0 | 0.00 | 0.00 | 0.00 | 92 | 1016.4 |
| 20260507081727 | 55 | 43 | 1.0 | 4.0 | 0.00 | 0.00 | 0.00 | 92 | 1016.5 |
| 20260507081223 | 55 | 1 | 0.0 | 0.0 | 0.00 | 0.00 | 0.00 | 92 | 1016.5 |
| 20260507080720 | 55 | 12 | 0.0 | 0.0 | 0.00 | 0.00 | 0.00 | 92 | 1016.4 |
| 20260507080216 | 55 | 7 | 0.0 | 0.0 | 0.00 | 0.00 | 0.00 | 92 | 1016.4 |
| 20260507075711 | 55 | 12 | 1.0 | 2.0 | 0.00 | 0.00 | 0.00 | 92 | 1016.2 |
| 20260507075208 | 55 | 3 | 4.0 | 8.0 | 0.00 | 0.00 | 0.00 | 92 | 1016.3 |
| 20260507074704 | 55 | 19 | 0.0 | 0.0 | 0.00 | 0.00 | 0.00 | 92 | 1016.3 |
| 20260507074203 | 54 | 27 | 0.0 | 0.0 | 0.00 | 0.00 | 0.00 | 92 | 1016.3 |
| 20260507073659 | 54 | 30 | 1.0 | 3.0 | 0.00 | 0.00 | 0.00 | 92 | 1016.1 |
| 20260507073155 | 55 | 35 | 1.0 | 2.0 | 0.00 | 0.00 | 0.00 | 92 | 1015.8 |
| 20260507072653 | 55 | 2 | 0.0 | 0.0 | 0.00 | 0.00 | 0.00 | 92 | 1015.8 |
| 20260507072150 | 55 | 41 | 0.0 | 1.0 | 0.00 | 0.00 | 0.00 | 91 | 1015.7 |
| 20260507071648 | 55 | 40 | 0.0 | 0.0 | 0.00 | 0.00 | 0.00 | 91 | 1015.6 |
| 20260507071144 | 55 | 17 | 0.0 | 0.0 | 0.00 | 0.00 | 0.00 | 91 | 1015.4 |
| 20260507070641 | 55 | 33 | 0.0 | 1.0 | 0.00 | 0.00 | 0.00 | 90 | 1015.5 |
| 20260507070138 | 55 | 45 | 0.0 | 0.0 | 0.00 | 0.00 | 0.00 | 90 | 1015.4 |
| 20260507065634 | 55 | 38 | 0.0 | 0.0 | 0.00 | 0.00 | 0.00 | 89 | 1015.5 |
| 20260507065131 | 55 | 5 | 0.0 | 0.0 | 0.00 | 0.00 | 0.00 | 89 | 1015.4 |
| 20260507064629 | 55 | 15 | 1.0 | 3.0 | 0.00 | 0.00 | 0.00 | 88 | 1015.5 |
| 20260507064127 | 55 | 52 | 0.0 | 1.0 | 0.00 | 0.00 | 0.00 | 88 | 1015.8 |
| 20260507063624 | 56 | 40 | 1.0 | 4.0 | 0.00 | 0.00 | 0.00 | 87 | 1015.7 |
| 20260507063121 | 56 | 25 | 0.0 | 2.0 | 0.00 | 0.00 | 0.00 | 87 | 1015.7 |
| 20260507062618 | 56 | 45 | 3.0 | 6.0 | 0.00 | 0.00 | 0.00 | 87 | 1016.1 |
| 20260507062116 | 56 | 13 | 3.0 | 6.0 | 0.00 | 0.00 | 0.00 | 87 | 1015.8 |
| 20260507061613 | 56 | 28 | 4.0 | 6.0 | 0.00 | 0.00 | 0.00 | 87 | 1015.8 |
| 20260507061111 | 56 | 46 | 1.0 | 2.0 | 0.00 | 0.00 | 0.00 | 87 | 1016.0 |
| 20260507060609 | 56 | 347 | 0.0 | 0.0 | 0.00 | 0.00 | 0.00 | 87 | 1015.8 |
| 20260507060105 | 56 | 69 | 1.0 | 2.0 | 0.00 | 0.00 | 0.00 | 87 | 1015.5 |
| 20260507055601 | 56 | 36 | 0.0 | 0.0 | 0.00 | 0.00 | 0.00 | 87 | 1015.8 |
| 20260507055057 | 57 | 33 | 0.0 | 0.0 | 0.00 | 0.00 | 0.00 | 87 | 1015.8 |
| 20260507054553 | 57 | 30 | 0.0 | 1.0 | 0.00 | 0.00 | 0.00 | 87 | 1015.8 |
| 20260507054050 | 57 | 9 | 3.0 | 7.0 | 0.00 | 0.00 | 0.00 | 87 | 1015.8 |
| 20260507053548 | 57 | 59 | 3.0 | 7.0 | 0.00 | 0.00 | 0.00 | 87 | 1015.8 |
| 20260507053047 | 57 | 31 | 2.0 | 6.0 | 0.00 | 0.00 | 0.00 | 87 | 1015.9 |
| 20260507052544 | 57 | 62 | 1.0 | 3.0 | 0.00 | 0.00 | 0.00 | 87 | 1015.7 |
| 20260507052040 | 57 | 33 | 1.0 | 3.0 | 0.00 | 0.00 | 0.00 | 86 | 1015.6 |
| 20260507051538 | 57 | 34 | 1.0 | 3.0 | 0.00 | 0.00 | 0.00 | 86 | 1015.6 |
| 20260507051035 | 57 | 49 | 0.0 | 0.0 | 0.00 | 0.00 | 0.00 | 87 | 1015.8 |
| 20260507050531 | 57 | 19 | 1.0 | 4.0 | 0.00 | 0.00 | 0.00 | 87 | 1016.0 |
| 20260507050028 | 57 | 30 | 1.0 | 3.0 | 0.00 | 0.00 | 0.00 | 87 | 1015.9 |
| 20260507045524 | 57 | 29 | 0.0 | 0.0 | 0.00 | 0.00 | 0.00 | 87 | 1016.0 |
| 20260507045022 | 57 | 25 | 0.0 | 1.0 | 0.00 | 0.00 | 0.00 | 87 | 1016.0 |
| 20260507044518 | 58 | 42 | 0.0 | 1.0 | 0.00 | 0.00 | 0.00 | 86 | 1016.2 |
| 20260507044015 | 58 | 45 | 0.0 | 0.0 | 0.00 | 0.00 | 0.00 | 86 | 1016.0 |
| 20260507043511 | 58 | 61 | 1.0 | 4.0 | 0.00 | 0.00 | 0.00 | 86 | 1016.2 |
| 20260507043009 | 58 | 41 | 1.0 | 2.0 | 0.00 | 0.00 | 0.00 | 86 | 1016.1 |
| 20260507042504 | 58 | 53 | 1.0 | 1.0 | 0.00 | 0.00 | 0.00 | 86 | 1016.4 |
| 20260507042000 | 58 | 34 | 2.0 | 7.0 | 0.00 | 0.00 | 0.00 | 86 | 1016.2 |
| 20260507041457 | 58 | 13 | 1.0 | 3.0 | 0.00 | 0.00 | 0.00 | 86 | 1016.2 |
| 20260507040954 | 58 | 20 | 2.0 | 4.0 | 0.00 | 0.00 | 0.00 | 86 | 1016.2 |
| 20260507040450 | 58 | 27 | 0.0 | 0.0 | 0.00 | 0.00 | 0.00 | 85 | 1016.2 |
| 20260507035946 | 58 | 19 | 3.0 | 4.0 | 0.00 | 0.00 | 0.00 | 85 | 1016.4 |
| 20260507035443 | 58 | 30 | 0.0 | 0.0 | 0.00 | 0.00 | 0.00 | 86 | 1016.2 |
| 20260507034939 | 58 | 53 | 2.0 | 3.0 | 0.00 | 0.00 | 0.00 | 86 | 1016.2 |
| 20260507034436 | 58 | 13 | 6.0 | 9.0 | 0.00 | 0.00 | 0.00 | 86 | 1016.5 |
| 20260507033935 | 58 | 30 | 1.0 | 2.0 | 0.00 | 0.00 | 0.00 | 86 | 1016.2 |
| 20260507033432 | 59 | 21 | 2.0 | 6.0 | 0.00 | 0.00 | 0.00 | 86 | 1016.3 |
| 20260507032928 | 58 | 53 | 1.0 | 2.0 | 0.00 | 0.00 | 0.00 | 85 | 1016.3 |
| 20260507032426 | 58 | 353 | 12.0 | 14.0 | 0.00 | 0.00 | 0.00 | 86 | 1016.2 |
| 20260507031921 | 58 | 358 | 10.0 | 11.0 | 0.00 | 0.00 | 0.00 | 87 | 1016.2 |
| 20260507031418 | 58 | 6 | 2.0 | 7.0 | 0.00 | 0.00 | 0.00 | 88 | 1016.2 |
| 20260507030915 | 58 | 2 | 6.0 | 7.0 | 0.00 | 0.00 | 0.00 | 89 | 1015.9 |
| 20260507030412 | 58 | 14 | 1.0 | 3.0 | 0.00 | 0.00 | 0.00 | 89 | 1015.6 |
| 20260507025909 | 58 | 0 | 4.0 | 4.0 | 0.00 | 0.00 | 0.00 | 89 | 1015.8 |
| 20260507025407 | 58 | 32 | 2.0 | 6.0 | 0.00 | 0.00 | 0.00 | 89 | 1015.5 |
| 20260507024904 | 58 | 349 | 0.0 | 1.0 | 0.00 | 0.00 | 0.00 | 89 | 1015.6 |
| 20260507024402 | 58 | 9 | 6.0 | 9.0 | 0.00 | 0.00 | 0.00 | 89 | 1015.6 |
| 20260507023857 | 58 | 9 | 1.0 | 4.0 | 0.00 | 0.00 | 0.00 | 89 | 1015.4 |
| 20260507023354 | 58 | 47 | 0.0 | 2.0 | 0.00 | 0.00 | 0.00 | 89 | 1015.6 |
| 20260507022852 | 58 | 56 | 5.0 | 8.0 | 0.00 | 0.00 | 0.00 | 89 | 1015.0 |
| 20260507022348 | 58 | 10 | 2.0 | 8.0 | 0.00 | 0.00 | 0.00 | 89 | 1015.2 |
| 20260507021844 | 58 | 16 | 0.0 | 3.0 | 0.00 | 0.00 | 0.00 | 89 | 1014.9 |
| 20260507021339 | 58 | 7 | 0.0 | 2.0 | 0.00 | 0.00 | 0.00 | 89 | 1015.0 |
| 20260507020837 | 58 | 14 | 0.0 | 0.0 | 0.00 | 0.00 | 0.00 | 89 | 1014.6 |
| 20260507020334 | 58 | 10 | 0.0 | 0.0 | 0.00 | 0.00 | 0.00 | 89 | 1014.7 |
| 20260507015831 | 58 | 33 | 0.0 | 0.0 | 0.00 | 0.00 | 0.00 | 89 | 1014.5 |
| 20260507015328 | 58 | 30 | 0.0 | 0.0 | 0.00 | 0.00 | 0.00 | 89 | 1014.5 |
| 20260507014820 | 58 | 15 | 0.0 | 0.0 | 0.00 | 0.00 | 0.00 | 89 | 1014.4 |
| 20260507014316 | 58 | 7 | 0.0 | 0.0 | 0.00 | 0.00 | 0.00 | 90 | 1014.2 |
| 20260507013812 | 58 | 16 | 0.0 | 0.0 | 0.00 | 0.00 | 0.00 | 90 | 1014.2 |
| 20260507013310 | 58 | 19 | 0.0 | 0.0 | 0.00 | 0.00 | 0.00 | 90 | 1014.0 |
| 20260507012808 | 58 | 29 | 0.0 | 1.0 | 0.00 | 0.00 | 0.00 | 91 | 1013.7 |
| 20260507012306 | 58 | 356 | 0.0 | 0.0 | 0.00 | 0.00 | 0.00 | 91 | 1013.8 |
| 20260507011801 | 58 | 79 | 0.0 | 0.0 | 0.00 | 0.00 | 0.00 | 91 | 1013.5 |
| 20260507011257 | 58 | 334 | 0.0 | 0.0 | 0.00 | 0.00 | 0.00 | 91 | 1013.3 |
| 20260507010756 | 58 | 43 | 0.0 | 0.0 | 0.00 | 0.00 | 0.00 | 91 | 1013.3 |
| 20260507010252 | 59 | 37 | 0.0 | 0.0 | 0.00 | 0.00 | 0.00 | 91 | 1013.5 |
| 20260507005750 | 59 | 44 | 0.0 | 0.0 | 0.00 | 0.00 | 0.00 | 91 | 1013.1 |
| 20260507005246 | 59 | 20 | 0.0 | 0.0 | 0.00 | 0.00 | 0.00 | 90 | 1013.2 |
| 20260507004743 | 59 | 41 | 0.0 | 0.0 | 0.00 | 0.00 | 0.00 | 89 | 1013.2 |
| 20260507004241 | 59 | 0 | 1.0 | 3.0 | 0.00 | 0.00 | 0.00 | 88 | 1013.3 |
| 20260507003737 | 59 | 3 | 0.0 | 1.0 | 0.00 | 0.00 | 0.00 | 87 | 1013.4 |
| 20260507003232 | 59 | 322 | 0.0 | 1.0 | 0.00 | 0.00 | 0.00 | 87 | 1013.6 |
| 20260507002729 | 59 | 343 | 0.0 | 1.0 | 0.00 | 0.00 | 0.00 | 87 | 1013.3 |
| 20260507002225 | 59 | 339 | 1.0 | 4.0 | 0.00 | 0.00 | 0.00 | 86 | 1013.4 |
| 20260507001721 | 60 | 335 | 1.0 | 4.0 | 0.00 | 0.00 | 0.00 | 85 | 1013.4 |
| 20260507001219 | 60 | 8 | 6.0 | 8.0 | 0.00 | 0.00 | 0.00 | 82 | 1012.9 |
| 20260507000715 | 60 | 358 | 6.0 | 8.0 | 0.00 | 0.00 | 0.00 | 81 | 1013.1 |
| 20260507000212 | 60 | 357 | 2.0 | 4.0 | 0.00 | 0.00 | 0.00 | 81 | 1013.1 |
| 20260506235708 | 60 | 357 | 2.0 | 3.0 | 0.00 | 0.00 | 0.00 | 81 | 1012.7 |
| 20260506235203 | 60 | 355 | 5.0 | 7.0 | 0.00 | 0.00 | 0.00 | 81 | 1012.6 |
| 20260506234700 | 60 | 348 | 4.0 | 8.0 | 0.00 | 0.00 | 0.00 | 81 | 1012.8 |
| 20260506234158 | 60 | 346 | 0.0 | 0.0 | 0.00 | 0.00 | 0.00 | 81 | 1012.7 |
| 20260506233655 | 60 | 1 | 8.0 | 10.0 | 0.00 | 0.00 | 0.00 | 80 | 1012.7 |
| 20260506233152 | 60 | 11 | 0.0 | 0.0 | 0.00 | 0.00 | 0.00 | 81 | 1012.4 |
| 20260506232648 | 60 | 359 | 5.0 | 7.0 | 0.00 | 0.00 | 0.00 | 81 | 1012.7 |
| 20260506232143 | 60 | 32 | 4.0 | 4.0 | 0.00 | 0.00 | 0.00 | 81 | 1012.7 |
| 20260506231640 | 60 | 349 | 8.0 | 9.0 | 0.00 | 0.00 | 0.00 | 81 | 1012.7 |
| 20260506231139 | 60 | 349 | 7.0 | 9.0 | 0.00 | 0.00 | 0.00 | 81 | 1012.7 |
| 20260506230636 | 60 | 9 | 6.0 | 8.0 | 0.00 | 0.00 | 0.00 | 81 | 1012.7 |
| 20260506230132 | 60 | 344 | 7.0 | 8.0 | 0.00 | 0.00 | 0.00 | 81 | 1012.7 |
| 20260506225629 | 60 | 4 | 7.0 | 8.0 | 0.00 | 0.00 | 0.00 | 81 | 1012.8 |
| 20260506225125 | 60 | 344 | 8.0 | 9.0 | 0.00 | 0.00 | 0.00 | 81 | 1012.6 |
| 20260506224622 | 60 | 348 | 0.0 | 0.0 | 0.00 | 0.00 | 0.00 | 81 | 1012.9 |
| 20260506224119 | 60 | 2 | 0.0 | 2.0 | 0.00 | 0.00 | 0.00 | 82 | 1012.8 |
| 20260506223615 | 60 | 3 | 4.0 | 6.0 | 0.00 | 0.00 | 0.00 | 81 | 1012.6 |
| 20260506223111 | 60 | 15 | 5.0 | 7.0 | 0.00 | 0.00 | 0.00 | 81 | 1012.8 |
| 20260506222608 | 60 | 0 | 9.0 | 10.0 | 0.00 | 0.00 | 0.00 | 81 | 1012.4 |
| 20260506222104 | 60 | 339 | 5.0 | 6.0 | 0.00 | 0.00 | 0.00 | 81 | 1012.5 |
| 20260506221602 | 60 | 345 | 9.0 | 10.0 | 0.00 | 0.00 | 0.00 | 81 | 1012.2 |
| 20260506221100 | 60 | 340 | 6.0 | 7.0 | 0.00 | 0.00 | 0.00 | 81 | 1012.1 |
| 20260506220556 | 60 | 36 | 4.0 | 4.0 | 0.00 | 0.00 | 0.00 | 82 | 1012.5 |
| 20260506220051 | 60 | 335 | 4.0 | 6.0 | 0.00 | 0.00 | 0.00 | 82 | 1012.3 |
| 20260506215549 | 60 | 0 | 6.0 | 7.0 | 0.00 | 0.00 | 0.00 | 82 | 1012.2 |
| 20260506215044 | 60 | 334 | 3.0 | 3.0 | 0.00 | 0.00 | 0.00 | 83 | 1012.5 |
| 20260506214541 | 60 | 306 | 5.0 | 7.0 | 0.00 | 0.00 | 0.00 | 82 | 1012.3 |
| 20260506214039 | 60 | 309 | 4.0 | 6.0 | 0.00 | 0.00 | 0.00 | 82 | 1012.1 |
| 20260506213537 | 60 | 331 | 5.0 | 6.0 | 0.00 | 0.00 | 0.00 | 82 | 1012.1 |
| 20260506213033 | 60 | 325 | 7.0 | 8.0 | 0.00 | 0.00 | 0.00 | 82 | 1012.2 |
| 20260506212530 | 60 | 344 | 6.0 | 7.0 | 0.00 | 0.00 | 0.00 | 82 | 1012.4 |
| 20260506212025 | 60 | 352 | 7.0 | 9.0 | 0.00 | 0.00 | 0.00 | 82 | 1012.2 |
| 20260506211521 | 60 | 8 | 3.0 | 7.0 | 0.00 | 0.00 | 0.00 | 82 | 1012.3 |
| 20260506211019 | 60 | 339 | 0.0 | 0.0 | 0.00 | 0.00 | 0.00 | 82 | 1012.5 |
| 20260506210515 | 60 | 18 | 9.0 | 10.0 | 0.00 | 0.00 | 0.00 | 83 | 1012.2 |
| 20260506210012 | 59 | 314 | 7.0 | 9.0 | 0.00 | 0.00 | 0.00 | 82 | 1012.1 |
| 20260506205508 | 60 | 10 | 10.0 | 11.0 | 0.00 | 0.00 | 0.00 | 82 | 1012.1 |
| 20260506205004 | 59 | 18 | 8.0 | 8.0 | 0.00 | 0.00 | 0.00 | 83 | 1012.2 |
| 20260506204502 | 59 | 299 | 7.0 | 9.0 | 0.00 | 0.00 | 0.00 | 84 | 1012.4 |
| 20260506203959 | 59 | 358 | 12.0 | 14.0 | 0.00 | 0.00 | 0.00 | 83 | 1012.7 |
| 20260506203457 | 59 | 350 | 7.0 | 9.0 | 0.00 | 0.00 | 0.00 | 84 | 1012.4 |
| 20260506202953 | 58 | 352 | 7.0 | 9.0 | 0.00 | 0.00 | 0.00 | 84 | 1012.5 |
| 20260506202451 | 58 | 323 | 10.0 | 11.0 | 0.00 | 0.00 | 0.00 | 84 | 1012.8 |
| 20260506201947 | 58 | 343 | 6.0 | 7.0 | 0.00 | 0.00 | 0.00 | 85 | 1012.8 |
| 20260506201444 | 58 | 14 | 6.0 | 7.0 | 0.00 | 0.00 | 0.00 | 85 | 1012.9 |
| 20260506200941 | 57 | 353 | 1.0 | 4.0 | 0.00 | 0.00 | 0.00 | 86 | 1013.2 |
| 20260506200437 | 57 | 354 | 6.0 | 8.0 | 0.00 | 0.00 | 0.00 | 87 | 1013.2 |
| 20260506195933 | 57 | 339 | 4.0 | 7.0 | 0.00 | 0.00 | 0.00 | 87 | 1013.5 |
| 20260506195431 | 57 | 0 | 7.0 | 7.0 | 0.00 | 0.00 | 0.00 | 87 | 1013.2 |
| 20260506194927 | 57 | 320 | 9.0 | 10.0 | 0.00 | 0.00 | 0.00 | 88 | 1013.4 |
| 20260506194424 | 56 | 321 | 0.0 | 1.0 | 0.00 | 0.00 | 0.00 | 89 | 1013.3 |
| 20260506193921 | 56 | 340 | 6.0 | 8.0 | 0.00 | 0.00 | 0.00 | 89 | 1013.2 |
| 20260506193418 | 56 | 341 | 6.0 | 7.0 | 0.00 | 0.00 | 0.00 | 90 | 1013.2 |
| 20260506192915 | 56 | 358 | 0.0 | 1.0 | 0.00 | 0.00 | 0.00 | 89 | 1013.4 |
| 20260506192412 | 56 | 334 | 6.0 | 8.0 | 0.00 | 0.00 | 0.00 | 89 | 1013.2 |
| 20260506191909 | 56 | 329 | 9.0 | 9.0 | 0.00 | 0.00 | 0.00 | 88 | 1013.4 |
| 20260506191405 | 56 | 334 | 6.0 | 9.0 | 0.00 | 0.00 | 0.00 | 88 | 1013.2 |
| 20260506190902 | 56 | 346 | 4.0 | 8.0 | 0.00 | 0.00 | 0.00 | 88 | 1013.3 |
| 20260506190358 | 56 | 327 | 8.0 | 11.0 | 0.00 | 0.00 | 0.00 | 88 | 1013.4 |
| 20260506185855 | 57 | 341 | 4.0 | 4.0 | 0.00 | 0.00 | 0.00 | 87 | 1013.7 |
| 20260506185352 | 57 | 5 | 7.0 | 8.0 | 0.00 | 0.00 | 0.00 | 87 | 1013.6 |
| 20260506184849 | 56 | 307 | 2.0 | 6.0 | 0.00 | 0.00 | 0.00 | 87 | 1013.6 |
| 20260506184346 | 57 | 337 | 6.0 | 8.0 | 0.00 | 0.00 | 0.00 | 86 | 1013.5 |
| 20260506183843 | 57 | 345 | 5.0 | 8.0 | 0.00 | 0.00 | 0.00 | 87 | 1013.5 |
| 20260506183339 | 57 | 329 | 2.0 | 4.0 | 0.00 | 0.00 | 0.00 | 87 | 1013.3 |
| 20260506182836 | 57 | 352 | 7.0 | 8.0 | 0.00 | 0.00 | 0.00 | 87 | 1013.2 |
| 20260506182333 | 57 | 334 | 9.0 | 10.0 | 0.00 | 0.00 | 0.00 | 87 | 1013.0 |
| 20260506181831 | 56 | 337 | 9.0 | 10.0 | 0.00 | 0.00 | 0.00 | 88 | 1013.0 |
| 20260506181329 | 56 | 355 | 2.0 | 4.0 | 0.00 | 0.00 | 0.00 | 88 | 1013.3 |
| 20260506180826 | 56 | 329 | 4.0 | 4.0 | 0.00 | 0.00 | 0.00 | 88 | 1013.1 |
| 20260506180321 | 56 | 0 | 0.0 | 0.0 | 0.00 | 0.00 | 0.00 | 88 | 1013.3 |
| 20260506175818 | 56 | 53 | 0.0 | 0.0 | 0.00 | 0.00 | 0.00 | 87 | 1013.5 |
| 20260506175315 | 57 | 10 | 2.0 | 6.0 | 0.00 | 0.00 | 0.00 | 87 | 1013.4 |
| 20260506174812 | 57 | 9 | 0.0 | 0.0 | 0.00 | 0.00 | 0.00 | 87 | 1013.0 |
| 20260506174310 | 57 | 19 | 11.0 | 14.0 | 0.00 | 0.00 | 0.00 | 86 | 1012.0 |
| 20260506173807 | 58 | 333 | 11.0 | 14.0 | 0.00 | 0.00 | 0.00 | 86 | 1011.6 |
| 20260506173303 | 57 | 345 | 11.0 | 13.0 | 0.00 | 0.00 | 0.00 | 86 | 1011.3 |
| 20260506172801 | 57 | 12 | 9.0 | 13.0 | 0.00 | 0.00 | 0.00 | 88 | 1011.1 |
| 20260506172257 | 56 | 11 | 11.0 | 14.0 | 0.00 | 0.00 | 0.00 | 88 | 1011.6 |
| 20260506171755 | 56 | 358 | 10.0 | 16.0 | 0.00 | 0.00 | 0.00 | 88 | 1011.6 |
| 20260506171252 | 57 | 354 | 9.0 | 11.0 | 0.00 | 0.00 | 0.00 | 87 | 1012.2 |
| 20260506170749 | 57 | 356 | 7.0 | 8.0 | 0.00 | 0.00 | 0.00 | 87 | 1012.4 |
| 20260506170245 | 57 | 29 | 1.0 | 4.0 | 0.00 | 0.00 | 0.00 | 87 | 1012.7 |
| 20260506165744 | 57 | 358 | 2.0 | 6.0 | 0.00 | 0.00 | 0.00 | 87 | 1012.6 |
| 20260506165241 | 56 | 357 | 9.0 | 10.0 | 0.00 | 0.00 | 0.00 | 86 | 1013.3 |
| 20260506164738 | 57 | 12 | 6.0 | 7.0 | 0.00 | 0.00 | 0.00 | 86 | 1013.6 |
| 20260506164235 | 56 | 2 | 0.0 | 0.0 | 0.00 | 0.00 | 0.00 | 87 | 1013.5 |
| 20260506163732 | 56 | 5 | 6.0 | 6.0 | 0.00 | 0.00 | 0.00 | 86 | 1013.3 |
| 20260506163226 | 56 | 8 | 4.0 | 7.0 | 0.00 | 0.00 | 0.00 | 86 | 1013.1 |
| 20260506162723 | 55 | 23 | 3.0 | 8.0 | 0.00 | 0.00 | 0.00 | 87 | 1012.9 |
| 20260506162220 | 55 | 358 | 10.0 | 11.0 | 0.00 | 0.00 | 0.00 | 87 | 1012.4 |
| 20260506161712 | 55 | 335 | 9.0 | 11.0 | 0.00 | 0.00 | 0.00 | 87 | 1012.0 |
| 20260506161209 | 55 | 19 | 8.0 | 9.0 | 0.00 | 0.00 | 0.00 | 88 | 1012.1 |
| 20260506160707 | 55 | 13 | 10.0 | 13.0 | 0.00 | 0.00 | 0.00 | 88 | 1012.5 |
| 20260506160203 | 55 | 358 | 9.0 | 10.0 | 0.00 | 0.00 | 0.00 | 88 | 1012.5 |
| 20260506155701 | 55 | 5 | 8.0 | 9.0 | 0.00 | 0.00 | 0.00 | 88 | 1012.8 |
| 20260506155158 | 54 | 359 | 5.0 | 9.0 | 0.00 | 0.00 | 0.00 | 89 | 1012.8 |
| 20260506153300 | 54 | 23 | 7.0 | 8.0 | 0.00 | 0.00 | 0.00 | 89 | 1012.9 |
| 20260506152757 | 54 | 10 | 8.0 | 10.0 | 0.00 | 0.00 | 0.00 | 89 | 1012.8 |
| 20260506152254 | 54 | 343 | 10.0 | 11.0 | 0.00 | 0.00 | 0.00 | 89 | 1013.2 |
| 20260506151753 | 54 | 4 | 8.0 | 11.0 | 0.00 | 0.00 | 0.00 | 89 | 1013.3 |
| 20260506151249 | 54 | 316 | 4.0 | 6.0 | 0.00 | 0.00 | 0.00 | 88 | 1013.8 |
| 20260506150746 | 54 | 316 | 3.0 | 7.0 | 0.00 | 0.00 | 0.00 | 88 | 1014.0 |
| 20260506150243 | 54 | 350 | 10.0 | 11.0 | 0.00 | 0.00 | 0.00 | 87 | 1013.7 |
| 20260506145740 | 54 | 17 | 11.0 | 13.0 | 0.00 | 0.00 | 0.00 | 87 | 1013.8 |
| 20260506145236 | 54 | 324 | 9.0 | 11.0 | 0.00 | 0.00 | 0.00 | 87 | 1014.5 |
| 20260506144734 | 54 | 355 | 9.0 | 10.0 | 0.00 | 0.00 | 0.00 | 87 | 1013.7 |
| 20260506144231 | 55 | 317 | 11.0 | 13.0 | 0.00 | 0.00 | 0.00 | 86 | 1013.5 |
| 20260506143728 | 55 | 329 | 0.0 | 0.0 | 0.00 | 0.00 | 0.00 | 85 | 1013.4 |
| 20260506143226 | 55 | 329 | 8.0 | 9.0 | 0.00 | 0.00 | 0.00 | 85 | 1013.3 |
| 20260506142724 | 55 | 11 | 9.0 | 14.0 | 0.00 | 0.00 | 0.00 | 85 | 1013.0 |
| 20260506142222 | 55 | 343 | 12.0 | 16.0 | 0.00 | 0.00 | 0.00 | 85 | 1013.0 |
| 20260506141720 | 55 | 349 | 8.0 | 9.0 | 0.00 | 0.00 | 0.00 | 85 | 1012.8 |
| 20260506141218 | 55 | 347 | 7.0 | 8.0 | 0.00 | 0.00 | 0.00 | 85 | 1012.5 |
| 20260506140715 | 55 | 336 | 8.0 | 9.0 | 0.00 | 0.00 | 0.00 | 85 | 1012.6 |
| 20260506140212 | 55 | 28 | 9.0 | 10.0 | 0.00 | 0.00 | 0.00 | 85 | 1012.3 |
| 20260506135708 | 55 | 337 | 10.0 | 13.0 | 0.00 | 0.00 | 0.00 | 85 | 1012.3 |
| 20260506135205 | 55 | 358 | 8.0 | 9.0 | 0.00 | 0.00 | 0.00 | 85 | 1012.8 |
| 20260506134702 | 55 | 7 | 11.0 | 14.0 | 0.00 | 0.00 | 0.00 | 85 | 1012.7 |
| 20260506134158 | 55 | 9 | 11.0 | 14.0 | 0.00 | 0.00 | 0.00 | 84 | 1012.2 |
| 20260506133655 | 55 | 6 | 12.0 | 14.0 | 0.00 | 0.00 | 0.00 | 84 | 1012.1 |
| 20260506133151 | 55 | 10 | 6.0 | 7.0 | 0.00 | 0.00 | 0.00 | 84 | 1012.4 |
| 20260506132649 | 55 | 351 | 11.0 | 13.0 | 0.00 | 0.00 | 0.00 | 84 | 1012.1 |
| 20260506132146 | 56 | 4 | 11.0 | 13.0 | 0.00 | 0.00 | 0.00 | 84 | 1012.1 |
| 20260506131644 | 56 | 321 | 7.0 | 8.0 | 0.00 | 0.00 | 0.00 | 84 | 1011.9 |
| 20260506131139 | 55 | 353 | 10.0 | 14.0 | 0.00 | 0.00 | 0.00 | 84 | 1012.0 |
| 20260506130636 | 56 | 6 | 10.0 | 14.0 | 0.00 | 0.00 | 0.00 | 84 | 1011.8 |
| 20260506130134 | 56 | 18 | 11.0 | 11.0 | 0.00 | 0.00 | 0.00 | 83 | 1011.7 |
| 20260506125632 | 56 | 345 | 7.0 | 9.0 | 0.00 | 0.00 | 0.00 | 84 | 1011.8 |
| 20260506125129 | 56 | 352 | 9.0 | 9.0 | 0.00 | 0.00 | 0.00 | 84 | 1011.7 |
| 20260506124627 | 56 | 355 | 9.0 | 11.0 | 0.00 | 0.00 | 0.00 | 84 | 1011.5 |
| 20260506124125 | 56 | 359 | 8.0 | 9.0 | 0.00 | 0.00 | 0.00 | 84 | 1011.6 |
| 20260506123622 | 56 | 18 | 11.0 | 13.0 | 0.00 | 0.00 | 0.00 | 84 | 1011.5 |
| 20260506123121 | 56 | 336 | 8.0 | 10.0 | 0.00 | 0.00 | 0.00 | 84 | 1011.5 |
| 20260506122617 | 56 | 334 | 4.0 | 6.0 | 0.00 | 0.00 | 0.00 | 84 | 1011.4 |
| 20260506122115 | 56 | 354 | 9.0 | 11.0 | 0.00 | 0.00 | 0.00 | 84 | 1011.3 |
| 20260506121612 | 56 | 324 | 8.0 | 10.0 | 0.00 | 0.00 | 0.00 | 84 | 1011.4 |
| 20260506121109 | 57 | 318 | 10.0 | 11.0 | 0.00 | 0.00 | 0.00 | 84 | 1011.3 |
| 20260506120607 | 57 | 352 | 11.0 | 13.0 | 0.00 | 0.00 | 0.00 | 84 | 1011.1 |
| 20260506120104 | 57 | 347 | 7.0 | 8.0 | 0.00 | 0.00 | 0.00 | 84 | 1011.3 |
| 20260506115602 | 57 | 12 | 6.0 | 10.0 | 0.00 | 0.00 | 0.00 | 85 | 1011.1 |
| 20260506115100 | 57 | 348 | 3.0 | 6.0 | 0.00 | 0.00 | 0.00 | 85 | 1011.0 |
| 20260506114557 | 57 | 341 | 4.0 | 6.0 | 0.00 | 0.00 | 0.00 | 85 | 1010.8 |
| 20260506114055 | 57 | 357 | 11.0 | 13.0 | 0.00 | 0.00 | 0.00 | 85 | 1010.9 |
| 20260506113553 | 57 | 352 | 11.0 | 13.0 | 0.00 | 0.00 | 0.00 | 85 | 1010.5 |
| 20260506113050 | 57 | 327 | 7.0 | 8.0 | 0.00 | 0.00 | 0.00 | 85 | 1010.6 |
| 20260506112546 | 57 | 7 | 8.0 | 9.0 | 0.00 | 0.00 | 0.00 | 84 | 1010.6 |
| 20260506112044 | 57 | 6 | 6.0 | 10.0 | 0.00 | 0.00 | 0.00 | 84 | 1010.6 |
| 20260506111542 | 57 | 11 | 7.0 | 9.0 | 0.00 | 0.00 | 0.00 | 84 | 1010.5 |
| 20260506111038 | 57 | 348 | 5.0 | 7.0 | 0.00 | 0.00 | 0.00 | 85 | 1010.3 |
| 20260506110536 | 57 | 344 | 11.0 | 14.0 | 0.00 | 0.00 | 0.00 | 84 | 1010.3 |
| 20260506110033 | 58 | 348 | 13.0 | 14.0 | 0.00 | 0.00 | 0.00 | 85 | 1010.1 |
| 20260506105529 | 58 | 330 | 2.0 | 6.0 | 0.00 | 0.00 | 0.00 | 86 | 1010.2 |
| 20260506105027 | 58 | 354 | 5.0 | 7.0 | 0.00 | 0.00 | 0.00 | 86 | 1009.9 |
| 20260506104525 | 58 | 340 | 5.0 | 6.0 | 0.00 | 0.00 | 0.00 | 86 | 1009.9 |
| 20260506104022 | 58 | 317 | 5.0 | 6.0 | 0.00 | 0.00 | 0.00 | 86 | 1009.6 |
| 20260506103519 | 58 | 18 | 4.0 | 7.0 | 0.00 | 0.00 | 0.00 | 87 | 1009.6 |
| 20260506103016 | 58 | 329 | 1.0 | 3.0 | 0.00 | 0.00 | 0.00 | 88 | 1009.6 |
| 20260506102515 | 58 | 341 | 4.0 | 6.0 | 0.00 | 0.00 | 0.00 | 89 | 1009.7 |
| 20260506102011 | 58 | 333 | 0.0 | 0.0 | 0.00 | 0.00 | 0.00 | 89 | 1009.7 |
| 20260506101508 | 58 | 6 | 7.0 | 8.0 | 0.00 | 0.00 | 0.00 | 89 | 1009.3 |
| 20260506101005 | 57 | 350 | 1.0 | 2.0 | 0.00 | 0.00 | 0.00 | 90 | 1009.3 |
| 20260506100503 | 57 | 6 | 7.0 | 8.0 | 0.00 | 0.00 | 0.00 | 90 | 1009.3 |
| 20260506100001 | 57 | 344 | 3.0 | 7.0 | 0.00 | 0.00 | 0.00 | 91 | 1009.3 |
| 20260506095459 | 57 | 3 | 8.0 | 9.0 | 0.00 | 0.00 | 0.00 | 92 | 1009.1 |
| 20260506094955 | 57 | 356 | 7.0 | 7.0 | 0.00 | 0.00 | 0.00 | 92 | 1009.1 |
| 20260506094453 | 57 | 348 | 6.0 | 7.0 | 0.00 | 0.00 | 0.00 | 92 | 1009.0 |
| 20260506093951 | 58 | 316 | 9.0 | 10.0 | 0.00 | 0.00 | 0.00 | 92 | 1009.0 |